STARLINK-1959

decayed
NORAD ID: 47560 Int'l Des: 2021-009 Owner: SPXS Country: US Constellation: starlink
LEOCIRCULAR
Gruppe

Über STARLINK-1959

Beschreibung wird geladen...

Höhenverlauf

Altitude vs Time

uPlot chart will show altitude changes over time

Zweizeiliger Elementsatz

1 47560U 21009N 25187.35825235 .16272777 12529-4 35472-3 0 9996
2 47560 53.0139 330.2555 0010257 271.0133 180.9011 16.45861438245355
Epoch: 6. Juli 2025 • Age: 1475 hours

Aktueller Status

Position data unavailable
Startdatum 4. Feb. 2021
Alter 4.5 years
Verglühungsdatum 6. Juli 2025
Typ internet

Technische Details

Klassifizierung Payload
Masse 260.00 kg
Trockenmasse 248.00 kg
Gesamtmasse 260.00 kg
Länge 0.20 m
Durchmesser 2.80 m
Spannweite 9.00 m
Form Box + pan
Hersteller SPXS
Bus-Typ Starlink
Phasenstatus Unknown Transfer Status
Besitzer/Staat SPXS/US

Große Konstellationen

Loading constellations...